Total_Precipitation_Accumulation
0.00 0.00 0.00 0.00 0.00 0.00 0.00 0.00 0.00 0.03 0.05 0.11 0.11 0.17 0.12 0.22 0.63 1.37 1.07 1.38 1.68 0.62 0.52 0.41 0.11 0.03 0.05 0.08 0.08 0.06 0.05 0.04 0.07 0.10 0.21 0.34 0.37 0.55 0.53 0.40 0.42 0.77 1.19 1.05 0.75 0.66 0.78 0.64 0.48
0.00 0.00 0.00 0.00 0.00 0.00 0.00 0.00 0.02 0.10 0.37 0.43 0.30 0.29 0.33 0.84 0.89 1.56 1.47 2.31 2.45 1.37 0.90 0.86 0.61 0.11 0.04 0.04 0.04 0.05 0.06 0.07 0.06 0.06 0.15 0.38 0.44 0.38 0.37 0.51 0.60 0.90 1.20 1.36 1.09 1.30 1.66 1.18 0.81
0.00 0.00 0.00 0.00 0.00 0.00 0.00 0.00 0.01 0.06 0.26 0.37 0.14 0.15 0.31 0.58 1.05 0.85 1.01 1.41 1.53 1.16 1.19 1.07 1.16 0.90 0.35 0.18 0.10 0.07 0.11 0.08 0.07 0.10 0.18 0.30 0.32 0.45 0.48 0.91 1.10 1.39 1.32 1.56 1.50 1.42 1.43 1.06 0.99
0.00 0.00 0.00 0.00 0.00 0.00 0.00 0.01 0.16 0.18 0.12 0.07 0.19 0.27 0.36 0.47 0.73 0.82 0.62 0.87 1.21 1.13 1.27 1.49 1.49 1.01 0.64 0.65 0.29 0.12 0.11 0.04 0.06 0.16 0.35 0.33 0.90 1.04 1.19 1.68 2.47 2.57 2.25 2.30 3.24 2.81 1.82 0.92 1.07
0.00 0.00 0.00 0.00 0.00 0.01 0.02 0.03 0.12 0.12 0.42 0.43 0.15 0.39 0.54 0.61 0.41 0.56 1.02 1.11 1.78 1.83 2.56 3.32 3.01 2.44 1.15 1.03 0.80 0.35 0.18 0.09 0.12 0.31 0.74 1.04 1.76 1.52 1.16 0.96 1.02 1.25 2.20 2.22 1.88 1.74 1.72 1.15 0.30
0.00 0.00 0.00 0.00 0.00 0.03 0.07 0.19 0.34 0.31 0.73 0.52 0.46 0.67 0.66 0.78 0.67 0.58 1.09 1.91 3.18 3.36 3.46 5.12 5.76 5.47 4.26 2.68 1.90 1.54 1.37 1.03 0.79 0.56 0.59 0.59 1.04 1.24 0.75 0.44 0.34 0.26 0.31 0.41 0.40 0.33 0.21 0.22 0.09
0.00 0.00 0.00 0.00 0.01 0.01 0.04 0.19 0.36 0.22 0.62 1.20 0.49 0.62 0.44 0.42 0.62 1.08 1.65 2.31 3.88 5.86 5.89 5.29 7.55 5.19 4.08 4.32 3.31 3.34 2.38 2.16 1.90 1.39 0.82 0.43 0.44 0.59 0.33 0.27 0.21 0.15 0.13 0.18 0.26 0.19 0.15 0.09 0.06
0.00 0.00 0.00 0.00 0.01 0.02 0.06 0.29 0.38 0.15 0.19 0.25 0.33 0.59 0.76 0.40 0.56 0.91 1.65 2.11 3.75 6.60 9.38 6.78 6.77 5.27 3.53 3.46 4.04 3.26 3.43 2.82 2.05 1.61 1.32 0.47 0.54 0.47 0.51 0.32 0.26 0.15 0.09 0.11 0.13 0.21 0.24 0.28 0.27
0.00 0.00 0.00 0.01 0.02 0.05 0.17 0.40 0.32 0.13 0.09 0.16 0.27 0.46 0.62 0.50 0.31 0.76 1.08 1.51 2.11 3.71 5.29 5.86 7.32 6.12 3.64 2.53 3.44 2.97 3.66 3.20 2.04 1.59 2.08 0.83 0.42 0.44 0.39 0.29 0.18 0.17 0.11 0.11 0.17 0.38 0.35 0.30 0.26
0.00 0.00 0.00 0.00 0.05 0.22 0.30 0.46 0.19 0.16 0.38 0.38 0.96 0.58 0.91 0.64 0.34 0.58 0.99 1.01 1.74 2.12 2.42 3.34 5.36 6.95 4.41 2.99 2.12 2.22 2.96 4.65 2.35 1.57 1.79 1.46 0.60 0.52 0.36 0.30 0.28 0.30 0.28 0.33 0.61 0.62 0.49 0.31 0.16
0.00 0.00 0.00 0.01 0.04 0.10 0.07 0.07 0.02 0.03 0.05 0.31 0.50 0.44 0.52 0.61 0.60 0.68 0.97 0.90 1.28 1.37 1.46 1.49 2.51 4.28 3.75 3.14 2.62 2.27 2.44 4.20 3.53 1.70 1.26 1.59 0.71 0.71 0.56 0.49 0.53 0.50 0.47 0.58 0.62 0.68 0.72 0.64 0.41
0.00 0.00 0.00 0.00 0.03 0.04 0.00 0.05 0.02 0.02 0.05 0.08 0.15 0.28 0.46 0.59 0.58 0.71 0.95 1.13 0.87 1.23 1.18 1.14 0.98 2.12 2.14 1.87 2.23 2.08 1.44 2.07 3.80 1.93 1.47 1.24 1.22 0.77 0.52 0.34 0.37 0.35 0.31 0.38 0.41 0.58 0.60 0.49 0.49
0.00 0.00 0.00 0.03 0.01 0.00 0.00 0.00 0.07 0.06 0.09 0.27 0.17 0.60 0.69 0.64 0.59 0.72 1.22 0.84 1.11 1.13 1.17 1.09 0.88 1.18 1.71 1.81 1.88 1.58 0.94 1.27 2.74 2.33 1.70 1.09 1.33 1.12 0.76 0.55 0.29 0.22 0.24 0.29 0.25 0.31 0.33 0.32 0.35
0.00 0.00 0.00 0.00 0.00 0.00 0.01 0.00 0.01 0.18 0.30 0.68 0.58 0.86 0.95 0.61 0.62 1.09 0.61 0.36 0.47 0.70 0.58 0.62 0.80 0.73 1.09 1.61 1.31 1.42 0.98 1.02 2.02 2.47 1.77 1.21 1.01 1.05 0.65 0.54 0.53 0.57 0.56 0.40 0.34 0.36 0.34 0.46 0.61
0.00 0.00 0.00 0.00 0.00 0.00 0.02 0.08 0.16 0.07 0.06 0.19 0.41 0.35 0.41 0.30 0.21 0.29 0.23 0.13 0.21 0.49 0.45 0.46 0.57 0.67 1.09 1.40 1.13 1.07 0.97 0.84 1.29 2.07 1.83 1.88 1.19 1.12 0.92 0.68 0.48 0.40 0.45 0.59 0.62 0.50 0.35 0.29 0.35
0.00 0.00 0.01 0.09 0.00 0.00 0.00 0.13 0.28 0.06 0.08 0.09 0.10 0.09 0.19 0.29 0.21 0.29 0.15 0.10 0.08 0.38 0.31 0.32 0.68 1.01 1.05 1.17 1.11 1.18 0.96 0.88 1.28 1.77 1.81 1.97 1.86 1.00 0.96 0.68 0.37 0.30 0.51 0.76 0.91 0.70 0.39 0.32 0.31
0.00 0.00 0.00 0.00 0.00 0.00 0.00 0.01 0.07 0.06 0.04 0.06 0.04 0.01 0.05 0.35 0.53 0.24 0.14 0.10 0.07 0.12 0.17 0.52 0.90 1.33 1.61 1.50 1.52 1.97 1.76 1.42 1.29 1.63 1.66 1.33 1.94 1.41 1.01 0.90 0.67 0.69 0.59 0.73 1.07 0.99 0.80 0.53 0.32
0.00 0.00 0.00 0.00 0.00 0.00 0.00 0.00 0.03 0.04 0.02 0.01 0.01 0.00 0.01 0.02 0.07 0.03 0.03 0.03 0.08 0.13 0.12 0.71 1.16 1.45 1.62 2.42 2.28 2.09 1.57 1.50 1.36 1.50 1.48 1.36 1.61 1.82 1.34 1.02 0.91 1.05 1.05 0.82 0.85 1.01 0.96 0.88 0.74
0.00 0.00 0.00 0.00 0.00 0.00 0.00 0.00 0.02 0.04 0.03 0.13 0.01 0.00 0.00 0.00 0.00 0.01 0.02 0.05 0.08 0.13 0.31 0.84 1.27 1.59 1.31 0.96 0.83 1.07 1.01 0.96 1.16 1.50 1.36 1.03 1.26 1.42 1.67 1.14 0.83 0.85 0.95 0.96 1.18 1.14 0.98 0.68 0.88
0.00 0.00 0.00 0.00 0.00 0.00 0.00 0.00 0.01 0.02 0.02 0.05 0.02 0.01 0.00 0.00 0.01 0.02 0.04 0.10 0.14 0.27 0.38 0.43 0.43 0.63 0.33 0.30 0.39 0.76 0.98 1.05 1.07 1.33 1.17 1.08 1.22 1.49 1.47 1.36 1.21 0.80 0.80 0.93 1.39 1.44 1.41 0.90 1.19
0.00 0.00 0.00 0.00 0.00 0.00 0.00 0.00 0.00 0.01 0.03 0.02 0.03 0.01 0.00 0.00 0.00 0.02 0.09 0.13 0.15 0.15 0.18 0.08 0.09 0.37 0.38 0.38 0.52 0.83 1.28 1.28 1.32 1.56 1.43 1.22 1.47 1.44 1.56 1.26 1.48 1.32 1.33 1.14 1.30 1.56 1.39 0.99 1.08
0.01 0.00 0.00 0.00 0.01 0.02 0.00 0.02 0.02 0.00 0.01 0.01 0.02 0.01 0.01 0.01 0.01 0.01 0.01 0.02 0.03 0.02 0.05 0.06 0.13 0.29 0.61 0.67 0.67 0.74 0.98 0.93 1.03 1.13 1.40 1.28 1.30 1.45 1.56 1.58 1.72 1.67 1.58 1.54 1.44 1.62 1.54 1.55 1.21
0.03 0.00 0.00 0.00 0.00 0.02 0.01 0.03 0.01 0.00 0.00 0.00 0.01 0.02 0.00 0.01 0.01 0.00 0.01 0.02 0.04 0.11 0.17 0.31 0.47 0.50 0.65 0.74 0.83 0.81 0.91 0.96 1.03 1.18 1.51 1.68 1.27 1.10 1.15 1.40 1.54 1.71 1.72 1.64 1.72 1.72 1.84 1.80 1.97
0.00 0.00 0.00 0.00 0.02 0.07 0.01 0.07 0.02 0.01 0.01 0.02 0.00 0.00 0.00 0.02 0.01 0.01 0.02 0.02 0.14 0.34 0.44 0.55 0.56 0.56 0.71 0.81 0.84 0.90 0.91 0.97 0.91 1.13 1.52 2.25 2.24 1.74 1.50 1.51 1.51 1.66 1.80 1.67 1.91 2.01 1.89 2.16 2.30
0.04 0.09 0.26 0.31 0.12 0.09 0.05 0.09 0.05 0.02 0.02 0.05 0.01 0.01 0.00 0.01 0.01 0.02 0.02 0.07 0.22 0.46 0.60 0.73 0.75 0.67 0.79 0.95 0.97 1.00 1.08 1.01 1.03 1.06 1.20 1.71 2.78 2.82 2.36 2.10 2.20 2.37 2.66 2.88 2.96 3.13 2.98 2.77 2.92
0.05 0.19 0.67 0.79 0.28 0.26 0.18 0.13 0.11 0.08 0.04 0.03 0.03 0.02 0.02 0.01 0.01 0.01 0.06 0.11 0.19 0.50 0.65 0.83 0.95 0.99 0.91 0.92 1.13 1.21 1.25 1.45 1.45 1.51 1.53 1.51 1.77 2.44 2.69 2.61 2.48 2.89 3.53 3.77 4.16 4.09 3.85 3.88 3.76
0.08 0.14 0.16 0.51 0.41 0.46 0.17 0.06 0.10 0.11 0.13 0.09 0.06 0.03 0.04 0.04 0.05 0.11 0.21 0.30 0.38 0.49 0.47 0.56 0.81 0.97 1.28 1.30 1.22 1.30 1.39 1.39 1.42 1.63 1.78 2.17 2.21 2.37 2.62 2.92 2.67 2.44 2.66 3.21 3.74 3.81 3.70 3.67 3.43
0.05 0.06 0.20 0.75 1.06 0.55 0.13 0.08 0.20 0.34 0.35 0.30 0.21 0.15 0.14 0.13 0.16 0.36 0.48 0.42 0.40 0.43 0.39 0.42 0.50 0.83 1.31 1.56 1.42 1.28 1.45 1.55 1.39 1.48 1.36 1.42 1.61 2.06 2.43 2.66 3.05 3.05 2.68 2.69 3.26 3.38 3.29 3.24 2.95
0.28 0.31 0.39 0.59 0.83 0.97 0.42 0.16 0.22 0.35 0.45 0.42 0.48 0.47 0.34 0.26 0.37 0.57 0.92 0.87 0.64 0.50 0.44 0.46 0.56 0.53 0.51 0.53 0.74 1.10 1.41 1.27 1.21 1.11 1.25 1.42 1.58 1.77 2.18 2.60 3.12 3.75 3.43 3.08 2.96 2.91 2.82 2.58 2.38
0.18 0.50 1.09 1.68 1.47 0.94 0.82 0.33 0.16 0.13 0.21 0.43 1.18 1.14 0.69 0.51 0.79 0.87 1.21 1.60 1.13 0.80 0.62 0.43 0.53 0.54 0.72 0.87 0.77 0.77 0.93 1.00 1.07 1.23 1.27 1.56 1.94 2.13 2.46 2.67 3.01 3.30 3.63 3.55 3.24 2.83 2.56 2.52 2.31